Location: Calvatone
(45.1167°N, 10.4333°E)
Time: 12:00:32
(UTC+00:00)

CZ-4C R/B - Pass Details

Date: 28 January 2023
Orbit: 456 x 611 km, 98.1° (Epoch: 29 March)

Event Time Altitude Azimuth Distance (km) Brightness Sun altitude
Rises 17:21:00 0° 16° (NNE) 2,779 6.6 -11.0°
Reaches altitude 10° 17:23:13 10° 20° (NNE) 1,850 5.7 -11.4°
Maximum altitude 17:27:11 62° 101° (ESE) 609 3.2 -12.0°
Drops below altitude 10° 17:30:54 10° 183° (S) 1,738 6.1 -12.7°
Sets 17:32:56 0° 187° (S) 2,593 7.0 -13.0°
